Content
SEND FEEDBACK

Daily
Averages
Monthly
Summary
United States of America

CASSODAY, KANSAS


Home > North America > United States > Kansas
Elevation: 1456 feet     Latitude: 38 03N     Longitude: 096 38W

WEATHER
 
SELECT A DAY
Number of Records: 197,297;   Date Range: 1/1/95 - 7/27/14
 
SHARE

PRINT THIS DATA

[ ← Previous Day ]
WEATHER ALMANAC - JANUARY 31, 2013
[ Next Day → ]
[ °C ]   °F
Weather ElementAverageHighLow
Temperature19.2 °F26.1 °F (4:53 am)10 °F (8:53 pm)
Dewpoint10.7 °F19 °F (4:53 am)3 °F (5:53 pm)
Humidity70.1 %88 % (1:53 am)48 % (3:53 pm)
Barometer30.26 in30.53 in (8:53 pm)29.98 in (3:53 am)
Wind Speed9.9 mph20.7 mph (2:53 pm)
Wind Gust27.6 mph (2:53 pm)
Weather ElementAverage
Visibility9.9 mi
Wind DirectionWSW (258.6 °)

Weather ElementTotal
Precipitation---
Heating Degree Days47 (Base 65)
Averaged from 22 records on January 31, 2013
WEATHER CONDITIONS BREAKOUT
WIND DIRECTION BREAKOUT
WEATHER BY HOUR - JANUARY 31, 2013
[ °C ]   °F
Local TimeTemperatureDewpointHumidityBarometerVisibilityWind DirectionWind SpeedGust SpeedPrecipitationEventsConditions
1:53 AM18.0 °F15.1 °F88 %30.01 in10.0 miSouth (170°)8.1 mphClear
2:53 AM19.0 °F14.0 °F81 %30.00 in10.0 miCalmClear
3:53 AM24.1 °F17.1 °F75 %29.98 in10.0 miWSW (240°)5.8 mphMostly Cloudy
4:53 AM26.1 °F19.0 °F75 %29.99 in10.0 miWest (270°)6.9 mphOvercast
5:53 AM26.1 °F19.0 °F75 %29.99 in10.0 miWest (280°)6.9 mphMostly Cloudy
6:53 AM25.0 °F19.0 °F78 %30.04 in10.0 miNNW (330°)9.2 mphMostly Cloudy
7:53 AM24.1 °F18.0 °F77 %30.09 in8.0 miNorth (360°)12.7 mphOvercast
8:53 AM23.0 °F16.0 °F74 %30.14 in10.0 miNorth (360°)11.5 mphOvercast
9:53 AM23.0 °F15.1 °F72 %30.17 in10.0 miNorth (360°)19.6 mph25.3 mphMostly Cloudy
10:53 AM21.9 °F14.0 °F72 %30.25 in10.0 miNNW (340°)18.4 mph23.0 mphOvercast
11:53 AM23.0 °F15.1 °F72 %30.29 in10.0 miNorth (360°)15.0 mph20.7 mph
12:53 PM21.0 °F12.0 °F68 %30.32 in10.0 miNorth (350°)16.1 mph24.2 mphOvercast
2:53 PM23.0 °F7.0 °F50 %30.34 in10.0 miNW (320°)20.7 mph27.6 mphClear
3:53 PM21.9 °F5.0 °F48 %30.36 in10.0 miNNW (340°)19.6 mph26.5 mphClear
4:53 PM19.0 °F3.9 °F52 %30.39 in10.0 miNNW (340°)17.3 mphClear
5:53 PM16.0 °F3.0 °F57 %30.41 in10.0 miNNW (340°)12.7 mphClear
6:53 PM15.1 °F3.0 °F59 %30.45 in10.0 miNNW (330°)9.2 mphClear
7:53 PM12.0 °F3.9 °F70 %30.48 in10.0 miNNW (340°)3.5 mphClear
8:53 PM10.0 °F3.9 °F76 %30.53 in10.0 miWest (260°)4.6 mphClear
9:53 PM10.9 °F3.0 °F70 %30.52 in10.0 miCalmClear
10:53 PM10.0 °F3.0 °F73 %30.53 in10.0 miCalmClear
11:53 PM10.9 °F6.1 °F81 %30.52 in10.0 miCalmClear
Hourly data recorded from KEMP, located miles away from Cassoday, Kansas







STORIES FROM OUR PARTNERS